DAHMK EDHI-LFBO

Flight info

Callsign DAHMK
Flight time N/A
Altitude 35000
Route IDEKO9E IDEKO N850 XAROL/N0461F360 DCT BOMBI DCT GIGET DCT ABUKA DCT KRH DCT NATOR/N0460F350 DCT LUTIX DCT BENOT DCT NEMOS DCT NINTU DCT MEBAK DCT REPSI DCT LERGA DCT MINSO DCT NARAK
Aircraft A306/H-SDE3FGHIRWY/LB1

Departure

Time 2026-05-07 15:42
Airport Hamburg-Finkenwerder Airport (EDHI)

Arrival

Time N/A
Airport Toulouse-Blagnac Airport (LFBO)
Time Latitude Longitude Altitude Speed Heading
2026-05-07 15:28 53.54020 9.82330 13 ft 0 kts 15°
2026-05-07 15:32 53.54013 9.82327 13 ft 2 kts 15°
2026-05-07 15:32 53.53999 9.82321 13 ft 2 kts 15°
2026-05-07 15:32 53.53984 9.82314 13 ft 2 kts 15°
2026-05-07 15:32 53.53970 9.82307 13 ft 2 kts 15°
2026-05-07 15:33 53.53956 9.82301 13 ft 2 kts 15°
2026-05-07 15:33 53.53941 9.82294 13 ft 2 kts 25°
2026-05-07 15:33 53.53928 9.82279 13 ft 2 kts 46°
2026-05-07 15:33 53.53920 9.82259 13 ft 2 kts 65°
2026-05-07 15:34 53.53915 9.82235 13 ft 2 kts 84°
2026-05-07 15:34 53.53915 9.82211 13 ft 1 kts 103°
2026-05-07 15:34 53.53916 9.82204 13 ft 0 kts 105°
2026-05-07 15:36 53.53911 9.82236 13 ft 7 kts 105°
2026-05-07 15:37 53.53896 9.82338 13 ft 7 kts 104°
2026-05-07 15:37 53.53888 9.82373 13 ft 3 kts 134°
2026-05-07 15:37 53.53838 9.82419 13 ft 13 kts 171°
2026-05-07 15:37 53.53756 9.82409 13 ft 6 kts 181°
2026-05-07 15:38 53.53711 9.82452 13 ft 9 kts 126°
2026-05-07 15:38 53.53685 9.82569 13 ft 12 kts 110°
2026-05-07 15:38 53.53635 9.82691 13 ft 13 kts 135°
2026-05-07 15:38 53.53559 9.82814 13 ft 16 kts 141°
2026-05-07 15:39 53.53464 9.82931 15 ft 17 kts 144°
2026-05-07 15:39 53.53369 9.83050 16 ft 13 kts 143°
2026-05-07 15:39 53.53287 9.83032 17 ft 13 kts 222°
2026-05-07 15:39 53.53216 9.82893 17 ft 18 kts 231°
2026-05-07 15:40 53.53120 9.82691 17 ft 25 kts 231°
2026-05-07 15:40 53.52999 9.82441 16 ft 31 kts 230°
2026-05-07 15:40 53.52932 9.82208 16 ft 15 kts 270°
2026-05-07 15:40 53.52907 9.82123 16 ft 5 kts 200°
2026-05-07 15:41 53.52884 9.82154 16 ft 4 kts 112°
2026-05-07 15:41 53.52897 9.82222 16 ft 10 kts 50°
2026-05-07 15:41 53.53011 9.82450 16 ft 46 kts 51°
2026-05-07 15:41 53.53352 9.83176 17 ft 115 kts 52°
2026-05-07 15:42 53.53994 9.84529 107 ft 171 kts 51°
2026-05-07 15:42 53.54726 9.86012 963 ft 164 kts 49°
2026-05-07 15:42 53.55482 9.87444 1585 ft 169 kts 49°
2026-05-07 15:42 53.56276 9.88955 2097 ft 176 kts 47°
2026-05-07 15:43 53.57425 9.89894 2440 ft 196 kts 12°
2026-05-07 15:43 53.58797 9.89735 2885 ft 214 kts 347°
2026-05-07 15:43 53.60271 9.88558 2979 ft 252 kts 322°
2026-05-07 15:43 53.61449 9.86278 3692 ft 266 kts 297°
2026-05-07 15:44 53.61906 9.83258 4499 ft 271 kts 268°
2026-05-07 15:44 53.61513 9.80349 5645 ft 260 kts 245°
2026-05-07 15:44 53.60797 9.77371 6176 ft 279 kts 246°
2026-05-07 15:44 53.60163 9.74329 7284 ft 276 kts 246°
2026-05-07 15:45 53.59507 9.71355 8153 ft 283 kts 247°
2026-05-07 15:45 53.58793 9.68110 8556 ft 306 kts 247°
2026-05-07 15:45 53.58182 9.64703 9656 ft 305 kts 252°
2026-05-07 15:45 53.57612 9.61337 10707 ft 294 kts 249°
2026-05-07 15:46 53.54923 9.56936 11805 ft 281 kts 202°
2026-05-07 15:46 53.53020 9.55992 12053 ft 290 kts 195°
2026-05-07 15:46 53.50972 9.55310 12080 ft 316 kts 192°
2026-05-07 15:47 53.48758 9.54741 12080 ft 329 kts 190°
2026-05-07 15:47 53.46454 9.54236 12074 ft 333 kts 189°
2026-05-07 15:47 53.44170 9.53772 12074 ft 335 kts 189°
2026-05-07 15:47 53.41855 9.53314 12097 ft 336 kts 189°
2026-05-07 15:48 53.39512 9.52854 12439 ft 344 kts 189°
2026-05-07 15:48 53.37144 9.52390 13357 ft 344 kts 189°
2026-05-07 15:48 53.34810 9.51934 14268 ft 343 kts 190°
2026-05-07 15:48 53.32450 9.51472 15054 ft 345 kts 190°
2026-05-07 15:49 53.30056 9.51002 15752 ft 349 kts 191°
2026-05-07 15:49 53.27642 9.50529 16427 ft 353 kts 191°
2026-05-07 15:49 53.25203 9.50051 17105 ft 356 kts 191°
2026-05-07 15:49 53.22772 9.49577 17762 ft 360 kts 191°
2026-05-07 15:50 53.20249 9.49085 18419 ft 363 kts 192°
2026-05-07 15:50 53.17726 9.48595 19051 ft 366 kts 192°
2026-05-07 15:50 53.15207 9.48107 19647 ft 370 kts 192°
2026-05-07 15:50 53.12654 9.47611 20220 ft 374 kts 192°
2026-05-07 15:51 53.10078 9.47111 20800 ft 377 kts 193°
2026-05-07 15:51 53.07450 9.46600 21365 ft 381 kts 193°
2026-05-07 15:51 53.04814 9.46088 21894 ft 386 kts 194°
2026-05-07 15:51 53.02341 9.45608 22378 ft 390 kts 194°
2026-05-07 15:52 52.99660 9.45082 22867 ft 394 kts 195°
2026-05-07 15:52 52.96917 9.44512 23349 ft 398 kts 196°
2026-05-07 15:52 52.94166 9.43923 23846 ft 402 kts 196°
2026-05-07 15:52 52.91378 9.43324 24382 ft 406 kts 197°
2026-05-07 15:53 52.88566 9.42721 24921 ft 409 kts 197°
2026-05-07 15:53 52.85761 9.42120 25411 ft 413 kts 197°
2026-05-07 15:53 52.82901 9.41509 25908 ft 416 kts 197°
2026-05-07 15:53 52.80045 9.40902 26489 ft 417 kts 197°
2026-05-07 15:54 52.77161 9.40293 27115 ft 417 kts 198°
2026-05-07 15:54 52.74326 9.39694 27700 ft 416 kts 198°
2026-05-07 15:54 52.71462 9.39086 28196 ft 416 kts 198°
2026-05-07 15:54 52.68625 9.38484 28675 ft 415 kts 199°
2026-05-07 15:55 52.65781 9.37882 29156 ft 414 kts 199°
2026-05-07 15:55 52.62893 9.37258 29609 ft 414 kts 200°
2026-05-07 15:55 52.61724 9.36982 29791 ft 413 kts 200°